Wind_Speed
23 24 25 26 26 26 27 27 27 28 28 28 28 28 28 27 27 28 27 26 25 25 24 24 23 22 20 19 12 18 14 12 12 11 10 13 18 26 30 27 27 29 28 26 22 17 17
25 25 26 26 27 28 28 28 28 28 28 28 28 28 27 27 27 26 26 25 25 25 25 24 23 23 22 18 17 16 16 13 13 10 11 12 13 15 26 30 28 30 30 31 27 22 14
26 26 26 27 28 28 29 29 29 29 29 28 28 28 27 27 26 25 24 24 23 23 24 24 23 23 24 9 19 16 15 13 13 11 10 15 17 18 22 26 30 28 30 31 31 23 12
27 27 28 29 29 30 30 31 31 30 31 30 28 27 27 27 26 25 24 23 22 22 23 24 24 24 24 16 24 16 16 16 13 13 9 14 19 21 23 26 28 23 25 33 33 25 17
27 28 28 28 29 30 30 31 31 32 31 31 31 28 27 26 26 24 23 22 22 22 23 24 24 25 21 21 19 20 18 17 16 16 14 14 20 22 22 24 28 26 24 27 34 30 19
29 30 30 29 29 28 29 30 30 31 31 31 31 30 27 25 25 24 22 20 20 21 22 22 25 20 19 14 12 14 18 19 18 17 17 16 21 25 22 22 28 31 23 26 24 34 19
33 32 30 29 29 29 28 29 28 29 29 29 28 28 26 25 25 23 20 19 20 22 22 22 21 12 18 17 17 16 12 14 17 19 19 15 17 21 15 18 22 24 20 30 28 31 21
34 34 34 34 32 29 28 27 28 27 27 27 26 25 24 22 23 20 18 17 20 21 20 19 20 24 21 20 20 15 18 19 18 20 19 19 21 12 8 9 12 15 18 23 28 27 26
36 35 34 34 34 32 31 30 27 26 26 26 24 22 21 20 19 17 13 15 16 17 21 15 19 20 15 23 23 15 18 20 20 17 21 24 17 7 12 10 15 17 23 21 19 18 30
35 35 36 35 33 33 32 30 29 27 24 24 24 22 19 17 16 14 12 13 12 12 10 8 8 10 15 22 28 20 21 21 23 22 14 16 20 20 19 20 17 24 16 17 19 17 16
37 38 38 38 37 34 32 31 30 27 25 23 23 21 20 15 13 13 13 12 9 6 3 3 1 4 6 7 3 7 10 22 30 23 18 18 9 14 20 20 18 21 16 19 17 15 14
37 37 38 38 39 37 35 32 30 28 25 23 21 19 17 18 13 11 9 9 8 5 3 6 8 7 6 5 5 6 3 1 15 25 27 25 23 21 21 20 20 16 17 17 17 18 5
36 37 38 38 38 39 38 36 32 28 25 22 21 19 17 14 14 12 8 9 6 6 3 4 8 7 4 3 4 8 8 6 8 22 26 27 29 30 26 24 22 17 13 2 5 4 11
38 39 39 40 39 39 38 36 34 28 26 21 21 16 17 17 13 10 8 11 7 4 2 3 2 4 2 9 5 10 10 13 15 18 17 16 14 20 27 31 27 25 18 13 7 4 5
39 41 40 41 41 40 39 38 36 30 25 20 19 17 15 13 14 8 8 7 1 6 7 6 1 2 7 3 1 2 5 6 2 4 7 5 10 17 11 12 14 21 28 24 24 16 5
40 40 40 41 42 41 39 37 35 30 25 21 16 15 16 9 9 6 9 6 3 4 7 5 2 2 5 7 2 3 8 6 2 1 2 5 9 14 21 20 13 12 5 18 19 6 6
39 40 41 42 42 42 40 37 33 30 23 21 18 15 12 11 4 5 7 5 3 8 6 4 4 5 6 10 2 5 5 7 10 6 5 8 6 9 10 8 7 9 4 3 8 27 8
39 40 41 41 42 42 40 37 32 31 25 20 16 14 13 8 3 5 4 3 4 12 10 8 7 8 8 9 3 4 3 3 8 12 11 6 5 5 15 18 10 7 2 1 2 5 4
39 40 40 41 41 40 38 37 31 30 28 24 19 12 10 6 0 5 6 7 2 11 11 3 4 4 3 5 3 7 2 10 11 11 8 7 4 7 6 8 15 12 5 1 1 5 3
39 39 38 38 39 37 36 34 32 28 25 22 19 10 6 6 6 3 4 5 7 7 7 6 2 5 5 6 4 7 13 11 9 15 14 12 7 5 5 6 13 19 16 12 4 4 8
37 36 36 36 35 33 32 31 31 27 24 20 16 10 10 13 2 3 4 8 5 11 9 11 3 5 9 7 9 11 18 23 19 18 11 10 9 14 16 18 21 28 31 24 15 16 11
34 34 34 32 32 31 30 30 29 27 19 18 14 14 10 6 10 3 0 3 1 5 10 7 4 7 8 9 8 17 20 23 20 22 22 22 16 21 28 21 19 29 36 33 29 29 28
32 31 30 30 30 28 28 28 26 22 20 16 14 10 14 12 8 5 5 5 6 11 5 5 11 15 16 15 16 19 23 26 27 29 28 25 14 11 11 9 15 22 28 28 28 23 22
30 29 28 28 28 27 26 25 21 18 17 17 16 15 15 17 15 13 10 9 15 12 15 15 14 16 19 22 23 23 25 28 29 28 22 24 14 9 9 12 3 19 18 18 21 22 18
27 28 28 27 27 25 24 22 20 16 14 15 15 18 17 24 20 17 17 18 19 18 19 20 17 18 21 24 27 19 20 11 4 5 4 10 10 14 5 9 20 31 17 10 11 18 21
27 27 27 27 26 24 22 21 19 16 15 16 15 18 20 25 27 23 26 24 26 26 27 22 22 15 17 18 16 9 6 11 5 8 7 2 10 22 10 5 5 3 7 8 14 13 11
27 27 27 27 25 23 21 20 18 17 17 19 17 19 23 29 31 29 30 30 29 26 28 28 25 23 19 21 25 24 18 17 10 13 13 18 17 15 18 19 11 12 16 20 8 7 13
27 28 28 27 26 24 22 21 22 21 21 23 23 23 27 35 37 34 33 34 33 33 32 30 29 29 28 24 25 22 19 19 17 18 18 20 11 10 14 18 14 4 6 5 8 9 9
28 29 29 29 27 25 24 25 24 25 26 27 33 30 33 38 46 43 43 39 40 37 37 36 36 33 22 19 19 17 22 24 25 31 34 25 21 11 14 11 9 30 18 10 18 19 7
Wind_Direction
322 318 315 313 310 307 304 302 300 296 294 293 292 290 289 286 284 282 280 278 276 275 274 272 269 267 267 265 260 261 270 268 268 254 246 242 230 226 228 227 228 234 233 234 239 246 270
331 327 324 321 316 312 308 305 302 299 297 295 293 291 290 288 286 281 278 275 274 273 271 267 265 263 264 269 256 255 257 260 260 258 245 237 228 232 233 228 228 228 229 230 229 235 277
337 334 330 327 322 317 313 309 305 302 299 297 295 293 291 288 285 282 279 274 270 268 267 266 263 261 261 258 256 244 245 238 250 245 245 233 214 211 223 224 229 233 235 227 226 238 259
343 338 335 331 327 323 320 315 310 305 302 298 295 293 291 289 286 281 278 275 271 267 264 263 262 262 263 249 254 256 240 236 242 248 231 233 219 224 224 223 224 235 240 233 223 233 241
350 346 341 336 331 327 323 318 315 310 305 300 296 292 289 285 282 278 275 273 269 264 261 260 260 263 269 257 252 244 237 236 237 236 227 211 226 233 233 235 234 228 239 239 230 226 234
354 352 347 342 337 332 326 321 317 313 308 303 297 293 289 285 279 274 272 268 266 263 260 259 259 260 252 238 234 241 240 234 232 231 222 212 222 233 235 231 230 228 235 242 246 226 246
353 352 350 347 342 337 333 326 321 316 311 305 299 294 290 285 279 273 273 272 267 263 258 253 254 247 247 253 246 221 217 211 221 223 227 224 227 231 244 240 242 243 240 243 234 231 253
350 349 347 347 344 340 335 331 327 322 314 308 304 297 292 286 281 279 277 273 267 265 261 259 250 250 242 251 245 236 224 224 226 226 220 219 237 240 232 230 230 237 254 251 250 231 254
347 346 347 347 344 340 336 332 329 326 322 313 308 302 296 291 288 285 277 270 268 270 275 252 254 254 226 238 249 225 236 231 218 221 223 232 239 244 242 212 242 249 257 266 272 265 257
348 348 347 347 344 341 337 332 328 326 324 319 314 308 301 292 288 280 268 265 268 278 279 263 232 236 232 230 249 259 238 236 233 236 225 245 240 225 234 250 257 265 252 270 263 267 274
351 350 348 349 347 343 337 332 327 325 323 321 315 313 308 296 282 270 265 259 251 248 357 148 163 201 266 234 218 200 205 221 228 226 220 220 204 217 239 245 256 266 255 250 260 269 282
351 350 349 348 346 343 339 332 327 322 319 319 316 313 308 303 288 273 255 236 206 193 238 166 196 191 181 164 170 168 176 237 240 224 228 238 226 228 244 245 252 266 261 252 251 267 254
347 347 346 344 342 341 340 334 329 324 315 314 312 313 306 296 290 279 241 207 194 220 220 230 191 175 168 208 227 230 210 217 231 229 236 239 244 243 241 251 231 254 252 242 272 228 234
343 342 342 341 342 340 338 335 330 328 317 310 306 308 304 298 290 266 226 192 229 309 288 252 240 164 250 276 223 211 211 213 220 229 239 243 257 253 232 239 243 246 246 206 199 205 272
341 340 340 340 341 340 338 335 330 329 321 314 307 301 299 297 291 264 208 204 51 345 306 304 260 195 195 165 219 122 106 135 109 258 234 257 229 230 197 218 236 250 242 244 246 253 288
338 338 339 338 337 337 337 336 330 330 327 323 313 303 301 289 278 250 195 158 202 309 293 306 299 292 294 307 28 92 15 18 277 150 196 261 284 244 239 243 248 241 286 227 223 189 241
336 336 336 336 337 336 336 337 333 332 335 331 328 318 299 304 267 200 197 160 165 295 301 300 293 277 281 312 11 68 33 255 277 275 300 272 258 234 226 247 258 258 315 254 265 231 218
334 334 334 333 334 334 334 336 336 333 336 333 336 324 309 296 272 182 143 5 327 309 298 293 274 265 283 275 319 131 84 248 341 322 315 312 281 282 252 235 249 313 166 341 82 288 303
332 332 331 331 332 333 333 333 338 336 337 338 344 334 327 333 76 109 137 102 79 343 336 354 266 291 302 344 195 183 199 282 275 319 329 310 302 322 298 243 242 203 234 234 277 262 274
329 330 330 332 333 332 333 333 336 339 336 338 341 340 349 30 59 71 135 116 54 6 344 359 329 268 241 237 244 258 259 274 278 287 303 311 269 241 261 280 284 288 275 288 276 278 302
329 329 329 331 331 333 333 334 334 340 337 339 344 346 346 338 351 79 55 40 20 356 337 321 251 323 350 338 307 267 265 269 278 292 301 306 281 267 261 269 268 270 273 280 274 265 273
328 329 329 330 331 332 333 334 335 336 344 337 338 335 329 351 352 335 11 74 21 353 350 2 334 314 311 320 303 308 303 297 291 282 294 294 287 288 287 292 279 271 267 270 274 279 280
327 328 329 330 329 331 332 332 333 336 338 341 327 325 314 314 325 323 289 319 315 316 227 312 309 300 299 293 282 277 280 283 286 290 298 300 296 293 277 284 277 275 278 278 281 276 277
325 326 327 328 327 328 329 330 331 332 330 333 323 321 315 305 305 304 307 294 283 281 294 284 291 292 290 287 286 283 283 285 289 289 279 264 259 259 280 303 304 260 233 243 259 280 276
323 324 325 326 326 326 327 328 328 328 322 320 319 310 302 290 297 291 293 288 284 275 282 285 287 288 287 294 301 311 317 319 276 308 338 230 253 243 241 240 281 275 288 288 292 274 284
320 321 322 322 323 323 323 324 323 321 316 309 313 304 299 288 289 288 294 288 291 290 288 281 277 293 286 282 305 308 297 301 310 303 216 270 271 221 201 234 250 287 237 263 298 290 274
317 318 320 319 318 318 315 315 312 310 306 301 303 299 296 292 284 281 279 284 286 284 283 288 290 286 277 275 282 287 265 266 273 258 275 285 283 272 250 240 257 286 280 281 268 265 271
312 314 315 315 313 311 308 305 304 304 303 299 295 294 291 291 288 284 283 280 281 279 280 287 286 286 284 267 266 264 253 258 269 276 266 268 265 255 256 245 237 290 306 338 321 299 290
308 311 311 310 307 305 303 303 300 297 294 296 295 294 290 286 283 285 284 280 276 278 277 277 272 272 256 272 257 249 250 252 260 269 270 266 258 257 232 245 217 315 301 305 322 314 326
Height
3146 3143 3139 3136 3133 3130 3126 3124 3122 3119 3116 3113 3110 3108 3106 3105 3103 3101 3101 3100 3099 3099 3098 3097 3097 3097 3097 3099 3101 3099 3100 3101 3100 3101 3101 3102 3103 3106 3108 3112 3114 3113 3118 3118 3118 3122 3124
3143 3139 3136 3132 3129 3125 3122 3119 3116 3113 3110 3107 3104 3102 3100 3098 3096 3095 3094 3093 3093 3092 3092 3091 3091 3091 3092 3095 3095 3095 3096 3097 3097 3098 3098 3099 3101 3103 3104 3106 3108 3108 3110 3111 3112 3117 3121
3139 3135 3132 3129 3125 3121 3117 3114 3111 3108 3105 3102 3099 3097 3094 3092 3090 3089 3087 3086 3086 3086 3085 3085 3085 3085 3086 3092 3088 3089 3091 3093 3093 3094 3096 3096 3096 3097 3099 3102 3103 3104 3106 3108 3108 3113 3119
3136 3132 3128 3124 3120 3117 3113 3109 3106 3103 3100 3096 3093 3091 3089 3086 3084 3083 3082 3081 3080 3080 3079 3079 3079 3079 3079 3084 3081 3085 3086 3088 3089 3090 3092 3093 3093 3093 3095 3097 3100 3102 3104 3104 3108 3110 3116
3134 3129 3124 3120 3116 3112 3108 3104 3101 3098 3094 3091 3088 3086 3083 3081 3078 3077 3076 3075 3075 3074 3073 3073 3074 3074 3076 3076 3078 3079 3080 3083 3085 3087 3088 3090 3090 3090 3092 3094 3096 3098 3097 3100 3103 3106 3111
3132 3127 3122 3117 3113 3108 3104 3100 3097 3093 3089 3086 3082 3080 3078 3075 3073 3072 3071 3070 3069 3068 3068 3069 3068 3073 3072 3071 3072 3074 3075 3078 3080 3082 3084 3086 3086 3086 3088 3090 3088 3092 3095 3097 3098 3103 3106
3130 3125 3120 3115 3110 3105 3100 3096 3092 3089 3085 3082 3078 3075 3073 3070 3067 3066 3067 3065 3067 3065 3063 3064 3062 3065 3064 3065 3068 3070 3071 3073 3075 3077 3079 3081 3082 3080 3084 3086 3088 3090 3092 3093 3095 3098 3099
3129 3123 3118 3113 3107 3101 3096 3091 3088 3085 3081 3077 3074 3071 3068 3065 3062 3062 3061 3060 3058 3058 3057 3057 3057 3057 3061 3061 3062 3066 3066 3069 3070 3072 3074 3078 3075 3079 3082 3084 3085 3087 3088 3088 3092 3095 3095
3127 3121 3116 3110 3105 3100 3094 3088 3084 3080 3077 3073 3070 3066 3064 3061 3058 3058 3056 3054 3053 3053 3052 3054 3052 3052 3057 3057 3056 3062 3063 3063 3065 3068 3070 3070 3074 3076 3079 3080 3082 3082 3083 3087 3089 3091 3089
3125 3120 3114 3109 3103 3097 3091 3085 3080 3076 3072 3069 3066 3063 3059 3057 3058 3053 3051 3050 3050 3050 3050 3049 3048 3048 3051 3052 3052 3056 3059 3061 3061 3063 3066 3066 3069 3072 3074 3075 3079 3078 3081 3083 3086 3087 3087
3122 3117 3111 3106 3101 3095 3089 3082 3077 3073 3069 3065 3062 3059 3056 3053 3051 3050 3049 3048 3048 3050 3051 3048 3046 3047 3048 3051 3052 3052 3053 3052 3054 3059 3062 3060 3063 3067 3068 3072 3076 3075 3077 3079 3080 3081 3083
3122 3116 3110 3104 3099 3093 3087 3080 3074 3069 3066 3062 3058 3055 3052 3049 3047 3046 3045 3045 3046 3049 3044 3044 3042 3042 3045 3046 3047 3050 3050 3050 3052 3054 3055 3056 3060 3061 3062 3066 3068 3070 3071 3073 3074 3076 3078
3119 3114 3109 3103 3096 3090 3084 3077 3071 3066 3062 3059 3055 3052 3050 3046 3044 3042 3042 3043 3046 3042 3041 3040 3040 3042 3044 3045 3046 3046 3048 3050 3051 3051 3049 3053 3052 3055 3059 3060 3062 3065 3067 3069 3072 3073 3068
3116 3110 3105 3099 3093 3087 3080 3074 3068 3063 3058 3055 3051 3048 3045 3043 3040 3039 3039 3042 3041 3038 3036 3037 3038 3040 3041 3038 3040 3041 3044 3045 3044 3044 3045 3047 3048 3049 3052 3054 3057 3059 3063 3063 3069 3069 3062
3112 3106 3100 3094 3088 3083 3077 3070 3064 3060 3054 3051 3047 3044 3040 3039 3038 3037 3038 3039 3039 3038 3036 3036 3037 3037 3036 3037 3038 3039 3039 3040 3040 3040 3044 3042 3042 3044 3046 3049 3053 3053 3053 3060 3060 3060 3063
3109 3103 3096 3090 3085 3079 3074 3068 3061 3056 3051 3047 3044 3041 3039 3036 3035 3035 3036 3036 3037 3035 3036 3036 3036 3037 3034 3035 3038 3037 3038 3039 3038 3038 3039 3039 3038 3041 3041 3044 3048 3049 3051 3053 3053 3058 3061
3106 3100 3094 3088 3082 3076 3070 3065 3058 3053 3049 3044 3041 3038 3036 3034 3033 3033 3034 3035 3036 3033 3036 3037 3035 3035 3035 3035 3038 3039 3039 3037 3035 3035 3037 3036 3037 3037 3039 3041 3042 3045 3045 3046 3047 3048 3048
3102 3096 3091 3085 3079 3073 3067 3062 3056 3050 3046 3043 3039 3037 3034 3032 3034 3032 3033 3035 3036 3032 3033 3035 3034 3033 3033 3034 3036 3037 3036 3035 3033 3032 3033 3035 3033 3033 3035 3038 3041 3042 3042 3044 3045 3045 3045
3099 3093 3087 3081 3075 3070 3065 3059 3055 3049 3044 3040 3038 3036 3034 3032 3031 3032 3033 3034 3033 3031 3031 3033 3032 3032 3032 3032 3036 3035 3033 3032 3031 3031 3031 3032 3032 3031 3029 3035 3035 3037 3038 3041 3043 3043 3042
3094 3088 3083 3078 3072 3067 3062 3057 3052 3048 3044 3041 3038 3036 3035 3032 3033 3033 3032 3033 3033 3033 3032 3033 3033 3031 3030 3030 3032 3031 3029 3029 3030 3029 3030 3030 3031 3032 3034 3034 3033 3032 3034 3037 3040 3040 3039
3089 3084 3079 3073 3068 3064 3059 3054 3050 3047 3042 3041 3038 3036 3034 3033 3034 3034 3034 3034 3034 3033 3032 3032 3033 3031 3030 3030 3030 3028 3027 3025 3028 3027 3027 3028 3027 3027 3029 3030 3030 3027 3027 3032 3035 3037 3038
3084 3079 3074 3070 3065 3061 3056 3052 3048 3044 3042 3040 3038 3036 3035 3034 3033 3033 3032 3032 3031 3030 3033 3032 3031 3030 3030 3030 3030 3027 3025 3024 3025 3024 3025 3024 3022 3021 3019 3023 3023 3020 3019 3024 3027 3029 3029
3079 3074 3070 3066 3062 3058 3054 3050 3047 3043 3040 3039 3037 3036 3034 3033 3032 3032 3032 3032 3031 3030 3032 3031 3030 3029 3027 3027 3026 3024 3023 3022 3021 3020 3020 3020 3020 3020 3015 3016 3015 3013 3014 3015 3016 3020 3022
3074 3070 3066 3062 3058 3054 3051 3047 3044 3042 3040 3038 3036 3034 3032 3030 3030 3030 3030 3030 3029 3029 3028 3028 3027 3026 3025 3022 3021 3020 3019 3016 3016 3015 3015 3014 3017 3019 3015 3015 3017 3004 3006 3007 3009 3012 3011
3070 3066 3062 3058 3055 3051 3048 3045 3042 3040 3039 3037 3035 3032 3031 3026 3027 3026 3027 3026 3025 3026 3025 3024 3025 3023 3020 3019 3017 3014 3012 3011 3010 3010 3009 3008 3013 3014 3013 3012 3002 2997 3003 3006 3005 3004 3002
3065 3061 3057 3054 3051 3047 3044 3042 3039 3038 3036 3034 3033 3030 3027 3023 3021 3022 3021 3021 3019 3019 3018 3019 3020 3018 3017 3016 3014 3013 3013 3012 3011 3007 3007 3008 3008 3006 3009 3008 3002 2996 2994 2996 2997 2997 2997
3059 3056 3052 3049 3046 3043 3040 3038 3036 3034 3033 3030 3029 3027 3023 3017 3015 3017 3015 3015 3014 3014 3012 3011 3012 3013 3013 3012 3011 3010 3009 3010 3008 3006 3004 3003 3003 3003 3003 3000 2995 2993 2993 2994 2995 2997 2992
3053 3050 3047 3044 3041 3038 3035 3033 3031 3030 3028 3025 3024 3022 3018 3010 3006 3008 3008 3007 3007 3007 3006 3007 3007 3004 3004 3004 3003 3002 3000 3001 3000 2999 2998 2999 2999 2997 2995 2991 2992 2988 2990 2991 2991 2987 2987
3047 3044 3040 3037 3035 3032 3029 3027 3025 3023 3022 3019 3014 3015 3011 3004 2995 2996 2995 2996 2997 2999 2998 2996 2997 2998 2999 2996 2995 2994 2992 2991 2992 2988 2994 2993 2992 2990 2989 2984 2982 2986 2986 2986 2986 2984 2983